Location: Goettingen
(51.5300°N, 9.9433°E)
Time: 09:49:01
(UTC+01:00)

Tiangong - Visible Passes

Search period start: 20 January 2026 00:00
Search period end: 30 January 2026 00:00
Orbit: 378 x 393 km, 41.5° (Epoch: 19 January)

Date Brightness Start Highest point End Pass type
(mag) Time Alt. Az. Time Alt. Az. Time Alt. Az.
20 Jan 0.7 07:27:21 10° SSW 07:29:06 14° S 07:30:49 10° SE visible
21 Jan 0.7 06:28:31 10° SSW 06:29:58 13° S 06:31:26 10° SE visible
22 Jan 1.0 05:31:17 10° SSE 05:31:17 10° SSE 05:31:29 10° SSE visible
22 Jan 0.6 07:05:07 10° SW 07:06:52 14° S 07:08:37 10° SSE visible
23 Jan 0.4 06:06:56 13° SSW 06:07:40 14° S 06:09:23 10° SE visible
24 Jan 0.5 06:42:57 10° SW 06:44:30 13° S 06:46:03 10° SSE visible
25 Jan 0.5 05:45:48 13° S 05:45:48 13° S 05:46:57 10° SSE visible
26 Jan 0.5 06:21:16 10° SSW 06:21:58 11° SSW 06:22:53 10° S visible
